[Iaude] MPEC A134: 2024 AK3 [a=1.40,e=0.23,i=20.3,H=24.2]
    mpec at marsden.cfa.harvard.edu 
    mpec at marsden.cfa.harvard.edu
       
    Thu Jan 11 19:18:12 EST 2024
    
    
  
M.P.E.C. 2024-A134                             Issued 2024 January 12, 00:16 UT
     The Minor Planet Electronic Circulars contain information on unusual
         minor planets, routine data on comets and natural satellites,
         and occasional editorial announcements.  They are published
    on behalf of Division F of the International Astronomical Union by the
          Minor Planet Center, Smithsonian Astrophysical Observatory,
                          Cambridge, MA 02138, U.S.A.
			  
             Prepared using the Tamkin Foundation Computer Network
                              MPC at CFA.HARVARD.EDU
            URL https://www.minorplanetcenter.net/    ISSN 1523-6714
                                    2024 AK3                                    
Observations:
     K24A03K*1C2024 01 10.39974009 16 19.981+16 57 31.54               VEA134G96
     K24A03K 1C2024 01 10.40488109 16 20.334+16 58 17.18         20.76GVEA134G96
     K24A03K 1C2024 01 10.41003209 16 20.708+16 59 03.23         20.02GVEA134G96
     K24A03K 1C2024 01 10.41519009 16 21.076+16 59 49.13         20.24GVEA134G96
     K24A03K KC2024 01 10.44555709 16 23.260+17 04 18.80         21.69GVEA134V06
     K24A03K KC2024 01 10.44692009 16 23.360+17 04 31.00         22.43GVEA134V06
     K24A03K KC2024 01 10.44828509 16 23.420+17 04 44.40         21.61GVEA134V06
     K24A03K KC2024 01 10.44964909 16 23.560+17 04 54.90               VEA134V06
     K24A03K KC2024 01 10.53108309 16 29.660+17 16 55.50         22.42GVEA134V06
     K24A03K KC2024 01 10.53327709 16 29.790+17 17 14.90               VEA134V06
     K24A03K KC2024 01 10.53437409 16 29.980+17 17 24.00         21.65GVEA134V06
     K24A03K KC2024 01 11.26539609 17 42.968+19 05 38.22         20.52GVEA134V06
     K24A03K KC2024 01 11.26787609 17 43.174+19 06 00.32         20.71GVEA134V06
     K24A03K KC2024 01 11.27035609 17 43.354+19 06 22.43         20.51GVEA134V06
     K24A03K KC2024 01 11.27851009 17 43.948+19 07 35.26         20.90GVEA134V06
     K24A03K KC2024 01 11.99018609 18 47.16 +20 52 04.1          20.8 GVEA134L01
     K24A03K KC2024 01 11.99270909 18 47.37 +20 52 26.9          20.8 GVEA134L01
     K24A03K KC2024 01 11.99523109 18 47.53 +20 52 49.2          20.8 GVEA134L01
Observer details:
G96 Mt. Lemmon Survey.  Observer J. K. Hogan.  Measurers T. Beuden, V. F.
    Carvajal, D. Fay, J. B. Fazekas, D. C. Fuls, A. R. Gibbs, A. D. Grauer, H.
    Groeller, J. K. Hogan, R. A. Kowalski, S. M. Larson, G. J. Leonard, D.
    Rankin, R. L. Seaman, F. C. Shelly, K. W. Wierzchos.  1.5-m reflector +
    10K CCD.
L01 Visnjan Observatory, Tican.  Observers K. Korlevic, L. Poropat.  Measurer
    K. Korlevic.  1.0-m f/2.9 reflector + CCD.
V06 Catalina Sky Survey-Kuiper.  Observer K. W. Wierzchos.  Measurers T.
    Beuden, V. F. Carvajal, D. Fay, J. B. Fazekas, D. C. Fuls, A. R. Gibbs, A.
    D. Grauer, H. Groeller, J. K. Hogan, R. A. Kowalski, S. M. Larson, G. J.
    Leonard, D. Rankin, R. L. Seaman, F. C. Shelly, K. W. Wierzchos.  1.55-m
    reflector + 1K CCD.
Orbital elements:
2024 AK3                                                 Earth MOID = 0.1230 AU
Epoch 2023 Sept. 13.0 TT = JDT 2460200.5                MPC                     
M 308.51736              (2000.0)            P               Q                  
n   0.59501703     Peri.  329.12238     +0.11992188     -0.93947172             
a   1.3999627      Node   112.28524     +0.96690796     +0.03719619             
e   0.2263487      Incl.   20.29552     +0.22518380     +0.34060142             
P   1.66           H   24.21          G   0.15           U   9                  
Residuals in seconds of arc
240110 G96  0.1+  0.0     240110 V06  0.3-  1.4+    240111 V06  0.2+  0.0
240110 G96  0.1-  0.1-    240110 V06  0.3+  0.2-    240111 V06  0.1+  0.0
240110 G96  0.0   0.1+    240110 V06  0.1-  0.1-    240111 V06  0.1-  0.0
240110 G96  0.0   0.1+    240110 V06  0.7-  0.1-    240111 L01  0.2-  0.4-
240110 V06  0.2+  0.0     240110 V06  0.8+  0.7-    240111 L01  0.2+  0.2+
240110 V06  0.2+  0.1+    240111 V06  0.1-  0.0     240111 L01  0.1-  0.2+
Ephemeris:
2024 AK3                 a,e,i = 1.40, 0.23, 20                  q = 1.0831
Date    TT    R. A. (2000) Decl.     Delta      r    Elong.  Phase     V
2023 12 13    08 21 57.0 -30 44 36   0.2247  1.0837   110.4    58.4    23.2
...
2023 12 28    08 52 28.6 -12 47 35   0.1639  1.0938   128.9    44.4    22.2
...
2024 01 05    09 07 21.5 +03 46 34   0.1455  1.1041   143.8    31.7    21.6
...
2024 01 11    09 17 15.9 +18 26 38   0.1435  1.1139   153.7    23.0    21.3
2024 01 12    09 18 47.0 +20 53 50   0.1443  1.1157   154.8    22.0    21.3
2024 01 13    09 20 15.6 +23 19 10   0.1454  1.1176   155.6    21.3    21.3
...
2024 01 19    09 28 12.3 +36 37 44   0.1585  1.1296   155.0    21.6    21.5
...
2024 01 27    09 36 10.5 +49 44 05   0.1898  1.1478   146.6    28.2    22.1
...
2024 02 11    09 43 21.8 +61 49 30   0.2722  1.1879   132.5    37.8    23.3
A. U. Tomatic                (C) Copyright 2024 MPC           M.P.E.C. 2024-A134
    
    
More information about the Iaude
mailing list